TimeMDT,TemperatureF,Dew PointF,Humidity,Sea Level PressureIn,VisibilityMPH,Wind Direction,Wind SpeedMPH,Gust SpeedMPH,PrecipitationIn,Events,Conditions,WindDirDegrees,DateUTC
12:53 AM,35.1,26.1,70,29.60,10.0,SW,15.0,-,N/A,,Overcast,230,2013-03-21 06:53:00
1:53 AM,33.1,28.9,85,29.62,10.0,WNW,6.9,-,N/A,,Overcast,300,2013-03-21 07:53:00
2:00 AM,33.8,28.4,81,29.67,8.0,North,10.4,20.7,0.00,Snow,Light Snow,10,2013-03-21 08:00:00
2:07 AM,30.2,26.6,86,29.67,1.8,NNE,8.1,20.7,0.00,Snow,Light Snow,20,2013-03-21 08:07:00
2:13 AM,30.2,26.6,86,29.67,1.2,North,6.9,-,0.01,Snow,Light Snow,360,2013-03-21 08:13:00
2:20 AM,30.2,26.6,86,29.67,1.0,North,4.6,-,0.01,Snow,Light Snow,360,2013-03-21 08:20:00
2:27 AM,30.2,28.4,93,29.67,1.0,Calm,Calm,-,0.02,Snow,Light Snow,0,2013-03-21 08:27:00
2:35 AM,30.2,28.4,93,29.68,1.2,SW,8.1,-,0.02,Snow,Light Snow,220,2013-03-21 08:35:00
2:45 AM,30.2,28.4,93,29.67,1.0,SSW,5.8,-,0.03,Snow,Light Snow,200,2013-03-21 08:45:00
2:49 AM,30.2,28.4,93,29.67,0.5,NNE,5.8,-,0.05,Fog-Snow,Snow,30,2013-03-21 08:49:00
2:53 AM,28.9,27.0,92,29.65,0.5,NE,6.9,-,0.06,Fog-Snow,Snow,40,2013-03-21 08:53:00
3:01 AM,28.4,26.6,93,29.68,0.5,ENE,5.8,-,0.01,Fog-Snow,Snow,70,2013-03-21 09:01:00
3:04 AM,28.4,26.6,93,29.68,1.0,East,5.8,-,0.01,Snow,Light Snow,90,2013-03-21 09:04:00
3:07 AM,28.4,26.6,93,29.69,2.0,ESE,8.1,-,0.01,Snow,Light Snow,120,2013-03-21 09:07:00
3:14 AM,28.4,26.6,93,29.68,9.0,SE,10.4,-,0.01,,Overcast,130,2013-03-21 09:14:00
3:25 AM,28.4,26.6,93,29.67,10.0,SE,10.4,-,0.01,,Overcast,140,2013-03-21 09:25:00
3:53 AM,28.0,24.1,85,29.64,10.0,SE,10.4,-,0.01,,Overcast,130,2013-03-21 09:53:00
4:53 AM,28.0,19.9,72,29.66,10.0,SW,8.1,-,N/A,,Overcast,220,2013-03-21 10:53:00
5:32 AM,28.4,17.6,64,29.70,10.0,SW,12.7,-,N/A,,Overcast,220,2013-03-21 11:32:00
5:53 AM,28.0,16.0,61,29.70,10.0,West,15.0,-,N/A,,Overcast,260,2013-03-21 11:53:00
6:53 AM,25.0,12.9,60,29.77,10.0,SW,16.1,-,N/A,,Partly Cloudy,230,2013-03-21 12:53:00
7:53 AM,24.1,12.0,60,29.81,10.0,WSW,15.0,-,N/A,,Clear,250,2013-03-21 13:53:00
8:53 AM,26.1,9.0,49,29.81,10.0,West,19.6,-,N/A,,Clear,260,2013-03-21 14:53:00
9:53 AM,27.0,12.0,53,29.83,10.0,WSW,20.7,-,N/A,,Clear,240,2013-03-21 15:53:00
10:53 AM,28.9,14.0,54,29.87,10.0,WSW,21.9,26.5,N/A,,Scattered Clouds,250,2013-03-21 16:53:00
11:53 AM,30.0,15.1,54,29.86,10.0,WSW,24.2,-,N/A,,Clear,250,2013-03-21 17:53:00
12:53 PM,30.0,12.0,47,29.86,10.0,WSW,26.5,34.5,N/A,,Clear,250,2013-03-21 18:53:00
1:53 PM,32.0,10.0,40,29.88,10.0,WSW,23.0,33.4,N/A,,Clear,250,2013-03-21 19:53:00
2:53 PM,32.0,9.0,38,29.89,10.0,West,26.5,39.1,N/A,,Clear,260,2013-03-21 20:53:00
3:53 PM,34.0,3.9,28,29.91,10.0,West,20.7,29.9,N/A,,Partly Cloudy,280,2013-03-21 21:53:00
4:53 PM,34.0,3.0,27,29.92,10.0,West,26.5,36.8,N/A,,Scattered Clouds,260,2013-03-21 22:53:00
5:53 PM,32.0,3.9,31,29.94,10.0,West,17.3,25.3,N/A,,Scattered Clouds,280,2013-03-21 23:53:00
6:53 PM,30.0,3.0,32,29.96,10.0,West,17.3,-,N/A,,Clear,260,2013-03-22 00:53:00
7:53 PM,27.0,3.9,37,29.98,10.0,West,15.0,-,N/A,,Clear,270,2013-03-22 01:53:00
8:53 PM,23.0,5.0,46,30.00,10.0,WSW,9.2,-,N/A,,Partly Cloudy,250,2013-03-22 02:53:00
9:53 PM,21.0,7.0,55,30.02,10.0,South,9.2,-,N/A,,Clear,190,2013-03-22 03:53:00
10:53 PM,19.9,9.0,62,30.01,10.0,SSW,10.4,-,N/A,,Partly Cloudy,210,2013-03-22 04:53:00
11:53 PM,19.9,9.0,62,30.01,10.0,South,10.4,-,N/A,,Clear,190,2013-03-22 05:53:00